Back to catalog

COSMOS 2251 DEB

AliveLEO
NORAD 35674·DEBRIS·🇷🇺 Russia

Launched Jun 16, 1993 from Plesetsk Cosmodrome

Loading…

Next Passes (next 24 hours)

TLE

FreshSource: Space-Track

Epoch: Sep 14, 2026, 10:32 UTC

1 35674U 93036APR 26257.43911959  .00002985  00000-0  63354-3 0  9997
2 35674  74.0580 154.4975 0092051 131.3102 229.6033 14.56936613901238

Track COSMOS 2251 DEB in real time with AllMySat

Download on the App Store